| time (UTC) | temp F | wind direction | speed MPH | gust MPH | rain 1hr in | rain 24hr in | rain mn in | humidity % | barometer mb |
| 20260502170109 | 53 | 293 | 4.0 | 13.0 | 0.00 | 0.00 | 0.00 | 45 | 1016.4 |
| 20260502163059 | 53 | 18 | 4.0 | 10.0 | 0.00 | 0.00 | 0.00 | 47 | 1016.5 |
| 20260502161557 | 52 | 345 | 5.0 | 11.0 | 0.00 | 0.00 | 0.00 | 47 | 1016.6 |
| 20260502151606 | 52 | 274 | 2.0 | 10.0 | 0.00 | 0.00 | 0.00 | 51 | 1016.8 |
| 20260502140103 | 47 | 316 | 4.0 | 9.0 | 0.00 | 0.00 | 0.00 | 82 | 1017.0 |
| 20260502123100 | 41 | 195 | 0.0 | 2.0 | 0.00 | 0.00 | 0.00 | 92 | 1016.9 |
| 20260502121558 | 40 | 256 | 1.0 | 3.0 | 0.00 | 0.00 | 0.00 | 92 | 1016.8 |
| 20260502120105 | 39 | 218 | 1.0 | 2.0 | 0.00 | 0.00 | 0.00 | 92 | 1017.1 |
| 20260502114558 | 37 | 0 | 0.0 | 0.0 | 0.00 | 0.00 | 0.00 | 91 | 1016.9 |
| 20260502113057 | 37 | 0 | 0.0 | 2.0 | 0.00 | 0.00 | 0.00 | 91 | 1017.0 |
| 20260502111611 | 37 | 202 | 1.0 | 3.0 | 0.00 | 0.00 | 0.00 | 91 | 1016.6 |
| 20260502110056 | 37 | 0 | 0.0 | 0.0 | 0.00 | 0.00 | 0.00 | 90 | 1016.6 |
| 20260502104557 | 37 | 0 | 0.0 | 0.0 | 0.00 | 0.00 | 0.00 | 90 | 1016.6 |
| 20260502103109 | 37 | 0 | 0.0 | 0.0 | 0.00 | 0.00 | 0.00 | 90 | 1016.3 |
| 20260502101610 | 37 | 228 | 0.0 | 2.0 | 0.00 | 0.00 | 0.00 | 90 | 1016.9 |
| 20260502070056 | 41 | 0 | 1.0 | 3.0 | 0.00 | 0.00 | 0.00 | 83 | 1016.5 |
| 20260502064601 | 41 | 0 | 0.0 | 0.0 | 0.00 | 0.00 | 0.00 | 83 | 1016.4 |
| 20260502063102 | 42 | 0 | 0.0 | 1.0 | 0.00 | 0.00 | 0.00 | 81 | 1016.6 |
| 20260502061558 | 43 | 0 | 0.0 | 0.0 | 0.00 | 0.00 | 0.00 | 81 | 1016.9 |
| 20260502060058 | 43 | 0 | 0.0 | 2.0 | 0.00 | 0.00 | 0.00 | 79 | 1017.1 |
| 20260502054602 | 44 | 0 | 1.0 | 3.0 | 0.00 | 0.00 | 0.00 | 78 | 1016.9 |
| 20260502053057 | 45 | 0 | 0.0 | 0.0 | 0.00 | 0.00 | 0.00 | 77 | 1017.2 |
| 20260502051556 | 45 | 0 | 0.0 | 2.0 | 0.00 | 0.00 | 0.00 | 75 | 1017.2 |
| 20260502050055 | 46 | 0 | 0.0 | 3.0 | 0.00 | 0.00 | 0.00 | 73 | 1017.2 |
| 20260502044557 | 47 | 0 | 0.0 | 0.0 | 0.00 | 0.00 | 0.00 | 70 | 1017.4 |
| 20260502043107 | 47 | 0 | 0.0 | 1.0 | 0.00 | 0.00 | 0.00 | 69 | 1017.2 |
| 20260502041557 | 48 | 0 | 0.0 | 0.0 | 0.00 | 0.00 | 0.00 | 68 | 1017.3 |
| 20260502040057 | 48 | 0 | 0.0 | 1.0 | 0.00 | 0.00 | 0.00 | 67 | 1017.1 |
| 20260502034601 | 48 | 0 | 0.0 | 3.0 | 0.00 | 0.00 | 0.00 | 66 | 1017.0 |
| 20260502033058 | 49 | 339 | 0.0 | 3.0 | 0.00 | 0.00 | 0.00 | 65 | 1017.1 |
| 20260502031555 | 49 | 350 | 2.0 | 5.0 | 0.00 | 0.00 | 0.00 | 64 | 1017.3 |
| 20260502030100 | 49 | 25 | 1.0 | 4.0 | 0.00 | 0.00 | 0.00 | 63 | 1017.2 |
| 20260502024557 | 50 | 359 | 3.0 | 6.0 | 0.00 | 0.00 | 0.00 | 62 | 1017.2 |
| 20260502023057 | 50 | 342 | 2.0 | 9.0 | 0.00 | 0.00 | 0.00 | 62 | 1017.2 |
| 20260502021556 | 50 | 339 | 2.0 | 9.0 | 0.00 | 0.00 | 0.00 | 61 | 1017.0 |
| 20260502020056 | 51 | 2 | 3.0 | 9.0 | 0.00 | 0.00 | 0.00 | 61 | 1016.6 |
| 20260502014557 | 51 | 39 | 5.0 | 14.0 | 0.00 | 0.00 | 0.00 | 62 | 1016.3 |
| 20260502013056 | 52 | 29 | 5.0 | 17.0 | 0.00 | 0.00 | 0.00 | 61 | 1016.0 |
| 20260502011602 | 53 | 17 | 7.0 | 14.0 | 0.00 | 0.00 | 0.00 | 62 | 1015.6 |
| 20260502010058 | 53 | 345 | 7.0 | 14.0 | 0.00 | 0.00 | 0.00 | 63 | 1015.4 |
| 20260502004609 | 53 | 345 | 7.0 | 13.0 | 0.00 | 0.00 | 0.00 | 62 | 1015.0 |
| 20260502003056 | 54 | 335 | 8.0 | 13.0 | 0.00 | 0.00 | 0.00 | 62 | 1014.2 |
| 20260502001630 | 54 | 325 | 4.0 | 10.0 | 0.00 | 0.00 | 0.00 | 62 | 1014.2 |
| 20260502000115 | 54 | 342 | 8.0 | 11.0 | 0.00 | 0.00 | 0.00 | 63 | 1014.1 |
| 20260501234600 | 54 | 347 | 5.0 | 9.0 | 0.00 | 0.00 | 0.00 | 64 | 1013.7 |
| 20260501233100 | 55 | 335 | 3.0 | 9.0 | 0.00 | 0.00 | 0.00 | 64 | 1013.2 |
| 20260501231601 | 55 | 305 | 4.0 | 11.0 | 0.00 | 0.00 | 0.00 | 63 | 1013.2 |
| 20260501230056 | 55 | 347 | 6.0 | 11.0 | 0.00 | 0.00 | 0.00 | 61 | 1013.3 |
| 20260501224555 | 55 | 317 | 5.0 | 15.0 | 0.00 | 0.00 | 0.00 | 61 | 1013.2 |
| 20260501223109 | 56 | 339 | 8.0 | 15.0 | 0.00 | 0.00 | 0.00 | 59 | 1012.9 |
| 20260501221557 | 56 | 339 | 10.0 | 17.0 | 0.00 | 0.00 | 0.00 | 57 | 1012.9 |
| 20260501220105 | 57 | 308 | 10.0 | 19.0 | 0.00 | 0.00 | 0.00 | 56 | 1012.8 |
| 20260501214559 | 57 | 299 | 11.0 | 19.0 | 0.00 | 0.00 | 0.00 | 58 | 1012.9 |
| 20260501213112 | 58 | 335 | 11.0 | 16.0 | 0.00 | 0.00 | 0.00 | 59 | 1012.6 |
| 20260501211558 | 59 | 14 | 8.0 | 23.0 | 0.00 | 0.00 | 0.00 | 59 | 1012.6 |
| 20260501210121 | 59 | 340 | 6.0 | 18.0 | 0.00 | 0.00 | 0.00 | 58 | 1012.3 |
| 20260501204557 | 60 | 335 | 7.0 | 16.0 | 0.00 | 0.00 | 0.00 | 57 | 1012.2 |
| 20260501203100 | 61 | 352 | 11.0 | 20.0 | 0.00 | 0.00 | 0.00 | 52 | 1012.0 |
| 20260501201644 | 61 | 330 | 12.0 | 21.0 | 0.00 | 0.00 | 0.00 | 50 | 1011.8 |
| 20260501201557 | 61 | 330 | 12.0 | 21.0 | 0.00 | 0.00 | 0.00 | 50 | 1011.8 |
| 20260501200346 | 62 | 322 | 10.0 | 21.0 | 0.00 | 0.00 | 0.00 | 49 | 1011.6 |
| 20260501194559 | 62 | 285 | 10.0 | 20.0 | 0.00 | 0.00 | 0.00 | 47 | 1011.6 |
| 20260501193055 | 63 | 325 | 11.0 | 19.0 | 0.00 | 0.00 | 0.00 | 43 | 1011.3 |
| 20260501191557 | 64 | 347 | 9.0 | 15.0 | 0.00 | 0.00 | 0.00 | 41 | 1011.5 |
| 20260501190057 | 64 | 306 | 7.0 | 14.0 | 0.00 | 0.00 | 0.00 | 39 | 1011.4 |
| 20260501184555 | 65 | 322 | 6.0 | 17.0 | 0.00 | 0.00 | 0.00 | 37 | 1011.4 |
| 20260501183108 | 66 | 247 | 9.0 | 18.0 | 0.00 | 0.00 | 0.00 | 41 | 1011.5 |
| 20260501181603 | 65 | 244 | 5.0 | 14.0 | 0.00 | 0.00 | 0.00 | 43 | 1011.5 |
| 20260501180101 | 64 | 330 | 9.0 | 16.0 | 0.00 | 0.00 | 0.00 | 39 | 1011.7 |
| 20260501174638 | 64 | 244 | 4.0 | 11.0 | 0.00 | 0.00 | 0.00 | 38 | 1011.9 |
| 20260501173105 | 63 | 269 | 4.0 | 13.0 | 0.00 | 0.00 | 0.00 | 38 | 1012.1 |